Andravida, Greece

4:44 PM EEST on September 22, 2017 (GMT +0300)
Andravida Air Base

Weather History for LGAD - April, 2013

Change the Weather History Date:

Tuesday, April 2, 2013

  Actual Average Record
Temperature  
Mean Temperature 62 °F -  
Max Temperature 75 °F 65 °F 75 °F (2013)
Min Temperature 50 °F 47 °F 35 °F (2005)
Degree Days  
Heating Degree Days 2    
Growing Degree Days 12 (Base 50)    
Moisture  
Dew Point 49 °F    
Average Humidity 63    
Maximum Humidity 94    
Minimum Humidity 23    
Precipitation  
Precipitation 0.00 in - - ()
Sea Level Pressure  
Sea Level Pressure 29.68 in    
Wind  
Wind Speed 5 mph ()    
Max Wind Speed 20 mph    
Max Gust Speed 31 mph    
Visibility 6.2 miles    
Events      
Averages and records for this station are not official NWS values.
T = Trace of Precipitation, MM = Missing Value Source: Averaged Metar Reports

Daily Weather History Graph

Daily Weather History Graph

Search for Another Location

Airport or City:

Trip Planner

Search our weather history database for the weather conditions in past years. The results will help you decide how hot, cold, wet, or windy it might be!

Date:

Astronomy

Apr. 02, 2013 Rise Set
Actual Time 7:18 AM EEST 7:58 PM EEST
Civil Twilight 6:52 AM EEST 8:25 PM EEST
Nautical Twilight 6:20 AM EEST 8:56 PM EEST
Astronomical Twilight 5:48 AM EEST 9:28 PM EEST
Moon 1:42 AM EEST (4/2) 11:53 AM EEST (4/2)
Length of Visible Light 13h 33m
Length of Day
12h 40m
Waning Gibbous, 59% of the Moon is Illuminated
Apr 2
Waning Gibbous
Apr 3
Last Quarter
Apr 10
New
Apr 18
First Quarter
Apr 25
Full

Hourly Weather History & Observations

Time (EEST) Temp. Dew Point Humidity Pressure Visibility Wind Dir Wind Speed Gust Speed Precip Events Conditions
12:20 AM 57.2 °F 51.8 °F 82% 29.86 in 6.2 mi ESE 4.6 mph - N/A   Scattered Clouds
1:20 AM 55.4 °F 50.0 °F 82% 29.86 in 6.2 mi Calm Calm - N/A   Scattered Clouds
1:50 AM 55.4 °F 50.0 °F 82% 29.86 in 6.2 mi Calm Calm - N/A   Scattered Clouds
2:50 AM 53.6 °F 48.2 °F 82% 29.83 in 6.2 mi Calm Calm - N/A   Scattered Clouds
3:00 AM 53 °F 49 °F 80% 29.85 in 6 mi Calm Calm - -   Scattered Clouds
3:50 AM 50.0 °F 48.2 °F 94% 29.83 in 6.2 mi Calm Calm - N/A   Mostly Cloudy
4:50 AM 50.0 °F 48.2 °F 94% 29.80 in 6.2 mi Calm Calm - N/A   Scattered Clouds
5:50 AM 53.6 °F 48.2 °F 82% 29.83 in 6.2 mi Calm Calm - N/A   Scattered Clouds
6:20 AM 53.6 °F 50.0 °F 88% 29.86 in 6.2 mi Calm Calm - N/A   Scattered Clouds
6:50 AM 53.6 °F 50.0 °F 88% 29.83 in 6.2 mi Calm Calm - N/A   Mostly Cloudy
7:20 AM 53.6 °F 50.0 °F 88% 29.80 in 6.2 mi ESE 8.1 mph - N/A   Mostly Cloudy
7:50 AM 53.6 °F 48.2 °F 82% 29.74 in 6.2 mi ESE 9.2 mph - N/A   Mostly Cloudy
8:20 AM 55.4 °F 48.2 °F 77% 29.74 in 6.2 mi SE 5.8 mph - N/A   Mostly Cloudy
8:50 AM 55.4 °F 48.2 °F 77% 29.77 in 6.2 mi WNW 4.6 mph - N/A   Mostly Cloudy
9:00 AM 55 °F 49 °F 74% 29.77 in 6 mi Calm Calm - -   Scattered Clouds
9:20 AM 55.4 °F 50.0 °F 82% 29.74 in 6.2 mi Calm Calm - N/A   Mostly Cloudy
9:50 AM 57.2 °F 51.8 °F 82% 29.74 in 6.2 mi Calm Calm - N/A   Mostly Cloudy
10:20 AM 59.0 °F 51.8 °F 77% 29.74 in 6.2 mi NNE 6.9 mph - N/A   Mostly Cloudy
10:50 AM 64.4 °F 50.0 °F 59% 29.71 in 6.2 mi NE 5.8 mph - N/A   Mostly Cloudy
11:20 AM 71.6 °F 42.8 °F 35% 29.71 in 6.2 mi SE 6.9 mph - N/A   Mostly Cloudy
11:50 AM 73.4 °F 41.0 °F 31% 29.71 in 6.2 mi SSE 9.2 mph - N/A   Mostly Cloudy
12:20 PM 73.4 °F 42.8 °F 33% 29.68 in 6.2 mi SSE 9.2 mph - N/A   Mostly Cloudy
12:50 PM 71.6 °F 44.6 °F 38% 29.68 in 6.2 mi SW 8.1 mph - N/A   Mostly Cloudy
1:20 PM 71.6 °F 46.4 °F 41% 29.65 in 6.2 mi SSW 6.9 mph - N/A   Mostly Cloudy
1:50 PM 69.8 °F 50.0 °F 49% 29.62 in 6.2 mi SSE 8.1 mph - N/A   Mostly Cloudy
2:20 PM 73.4 °F 42.8 °F 33% 29.59 in 6.2 mi SE 12.7 mph - N/A   Mostly Cloudy
2:50 PM 73.4 °F 42.8 °F 33% 29.59 in 6.2 mi SSE 8.1 mph - N/A   Mostly Cloudy
3:00 PM 73 °F 43 °F 23% 29.60 in 6 mi SSE 8.1 mph - -   Partly Cloudy
3:20 PM 73.4 °F 46.4 °F 38% 29.59 in 6.2 mi South 4.6 mph - N/A   Mostly Cloudy
3:50 PM 75.2 °F 46.4 °F 36% 29.59 in 6.2 mi South 12.7 mph - N/A   Mostly Cloudy
4:20 PM 73.4 °F 48.2 °F 41% 29.56 in 6.2 mi SSE 17.3 mph 28.8 mph N/A   Mostly Cloudy
4:50 PM 73.4 °F 44.6 °F 36% 29.56 in 6.2 mi South 18.4 mph 29.9 mph N/A   Mostly Cloudy
5:20 PM 73.4 °F 44.6 °F 36% 29.53 in 6.2 mi SSE 19.6 mph 31.1 mph N/A   Mostly Cloudy
6:20 PM - - N/A% 29.53 in 6.2 mi SSE 16.1 mph - N/A   Mostly Cloudy
6:50 PM 69.8 °F 50.0 °F 49% 29.53 in 6.2 mi South 17.3 mph - N/A   Mostly Cloudy
7:20 PM 68.0 °F 50.0 °F 52% 29.56 in 6.2 mi South 12.7 mph - N/A   Mostly Cloudy
7:50 PM 68.0 °F 51.8 °F 56% 29.56 in 6.2 mi South 15.0 mph - N/A   Mostly Cloudy
8:20 PM 66.2 °F 51.8 °F 60% 29.56 in 6.2 mi South 12.7 mph 24.2 mph N/A   Mostly Cloudy
8:50 PM 66.2 °F 51.8 °F 60% 29.56 in 6.2 mi South 11.5 mph - N/A   Mostly Cloudy
9:00 PM 66 °F 52 °F 51% 29.57 in 6 mi South 11.5 mph - -   Scattered Clouds
9:20 PM 64.4 °F 51.8 °F 64% 29.56 in 6.2 mi South 11.5 mph - N/A   Mostly Cloudy
9:50 PM 64.4 °F 53.6 °F 68% 29.62 in 6.2 mi South 10.4 mph - N/A   Mostly Cloudy
10:20 PM 62.6 °F 55.4 °F 77% 29.59 in 6.2 mi SSE 9.2 mph - N/A   Mostly Cloudy
10:50 PM 62.6 °F 55.4 °F 77% 29.59 in 6.2 mi South 8.1 mph - N/A   Mostly Cloudy
11:20 PM 62.6 °F 53.6 °F 72% 29.59 in 6.2 mi SSE 8.1 mph - N/A   Mostly Cloudy
11:50 PM 62.6 °F 55.4 °F 77% 29.59 in 6.2 mi SSW 6.9 mph - N/A   Mostly Cloudy